EW4993 Weather Reports


time (UTC)temp
C
wind
direction
speed
KPH
gust
KPH
rain 1hr
cm
rain 24hr
cm
rain mn
cm
humidity
%
barometer
mb
20260504021506 17 190 0.0 0.0 0.00 0.00 0.00 75 991.7
20260504020047 18 190 0.0 0.0 0.00 0.00 0.00 74 991.5
20260504014546 18 190 0.0 0.0 0.00 0.00 0.00 73 991.3
20260504013027 18 190 0.0 0.0 0.00 0.00 0.00 71 991.2
20260504011523 19 190 0.0 0.0 0.00 0.00 0.00 69 991.3
20260504010001 20 190 0.0 0.0 0.00 0.00 0.00 65 991.3
20260504004558 21 190 1.6 6.4 0.00 0.00 0.00 61 991.3
20260504003042 21 192 1.6 9.7 0.00 0.00 0.00 58 991.3
20260504001537 21 192 4.8 9.7 0.00 0.00 0.00 55 991.4
20260504000015 22 190 4.8 9.7 0.00 0.00 0.00 54 991.6
20260503234511 22 190 3.2 9.7 0.00 0.00 0.00 52 991.7
20260503233050 23 197 4.8 16.1 0.00 0.00 0.00 47 991.8
20260503231551 24 201 8.0 19.3 0.00 0.00 0.00 45 991.7
20260503230025 24 189 9.7 17.7 0.00 0.00 0.00 43 991.8
20260503224523 24 215 12.9 22.5 0.00 0.00 0.00 43 992.1
20260503223004 24 197 8.0 22.5 0.00 0.00 0.00 46 992.2
20260503221502 24 205 9.7 17.7 0.00 0.00 0.00 43 992.4
20260503220044 24 219 9.7 19.3 0.00 0.00 0.00 45 992.5
20260503214550 24 200 11.3 19.3 0.00 0.00 0.00 44 992.8
20260503213032 25 215 11.3 19.3 0.00 0.00 0.00 44 993.0
20260503211523 24 208 8.0 17.7 0.00 0.00 0.00 47 993.3
20260503210001 24 226 8.0 17.7 0.00 0.00 0.00 45 993.6
20260503204621 25 209 11.3 27.4 0.00 0.00 0.00 47 993.7
20260503203041 24 188 6.4 24.1 0.00 0.00 0.00 47 994.1
20260503201541 25 222 8.0 24.1 0.00 0.00 0.00 47 994.4
20260503200021 25 188 11.3 16.1 0.00 0.00 0.00 45 994.6
20260503194525 24 211 11.3 20.9 0.00 0.00 0.00 45 994.8
20260503193006 24 215 9.7 22.5 0.00 0.00 0.00 46 995.0
20260503191502 24 212 9.7 17.7 0.00 0.00 0.00 49 995.2
20260503184600 24 208 8.0 20.9 0.00 0.00 0.00 50 995.7
20260503183046 23 180 6.4 17.7 0.00 0.00 0.00 44 995.8
20260503181523 23 215 9.7 16.1 0.00 0.00 0.00 49 996.1
20260503180030 23 203 11.3 19.3 0.00 0.00 0.00 47 996.4
20260503174512 23 179 9.7 16.1 0.00 0.00 0.00 48 996.6
20260503173004 23 229 11.3 19.3 0.00 0.00 0.00 45 996.8
20260503171544 23 231 9.7 20.9 0.00 0.00 0.00 50 997.0
20260503081558 13 15 0.0 3.2 0.00 0.03 0.00 81 995.4
20260503071511 13 32 0.0 0.0 0.00 0.03 0.00 80 995.9
20260503054528 14 41 0.0 0.0 0.00 0.03 0.00 80 996.1
20260503053013 14 46 0.0 0.0 0.00 0.03 0.00 79 996.2
20260503051554 15 46 0.0 0.0 0.00 0.03 0.00 79 996.0
20260503050059 15 49 0.0 1.6 0.00 0.03 0.00 79 996.0
20260503044535 15 49 0.0 0.0 0.00 0.03 0.00 80 996.0
20260503043033 15 57 0.0 0.0 0.00 0.03 0.00 80 995.9
20260503041519 15 57 0.0 1.6 0.00 0.03 0.00 79 995.9
20260503040015 16 84 0.0 0.0 0.00 0.03 0.00 76 995.9
20260503034552 16 92 0.0 0.0 0.00 0.03 0.00 74 995.7
20260503033057 16 92 0.0 0.0 0.00 0.03 0.00 74 995.7
20260503031532 16 92 0.0 0.0 0.00 0.03 0.00 74 995.5
20260503030030 17 92 0.0 0.0 0.00 0.03 0.00 73 995.6
20260503024504 17 92 0.0 0.0 0.00 0.03 0.00 72 995.4
20260503023002 17 92 0.0 0.0 0.00 0.03 0.00 72 995.0